LogoCoinalyze
    Ad-Free Version Hauptseite Märkte Finanzierungsraten
    Futures-Daten
    • Aggregierte Daten (Coins)
    • Einzelne Charts
    • Globale Charts
    Preisalarme
    TA
    Bitcoin Ethereum BNB Ripple Tron ZCash Dogecoin Monero UNUS SED LEO Chainlink Cardano Stellar Lumens Bitcoin Cash Litecoin Hedera Cronos Polkadot Ethereum Classic Algorand Quant Cosmos VeChain Dash Bitcoin SV BitTorrent Terra Decred Tezos Iota The Graph THETA Decentraland NEO Chiliz MultiversX Golem Basic Attention Token Horizen Qtum 0x DigiByte Beam RIF Token FTX Token Holo FUNToken Zilliqa Ontology aelf Nano Enjin Coin Ravencoin Mask Network Siacoin Verge Status WINk Waves IoTeX iExec RLC Power Ledger Steem Kyber Network Crystal Lisk Ark Ardor IOST WOO Network WAX Icon Storj Wanchain Loopring Bitcoin Diamond AdEx Bitcoin Gold Augur OmiseGO NEM MonaCoin BitShares Ren Komodo V Systems Nuls Mithril SOLVE Maker EOS Aion Nebulas HedgeTrade Bread Fetch.ai TomoChain Polygon Fantom Waltonchain GXChain Bytom Metaverse ETP MaidSafeCoin QASH
    Bestellen nach:
    Mehr
    • API
    • Kerzenformationen
    • Spenden
    • Kontakt
    • Sitemap
    • Privacy Policy
    • Disclaimer
    • Theme:
    Deutsch
    • English
    • Français
    • Русский
    • Türkçe
    • Nederlands
    • Português (BR)
    • Español
    • 한국어
    • 简体中文
    • 日本語
     
    Anmelden / Registrieren
    Markets/ Pepe/ PEPE zu USDT/ PEPEUSDT Bybit
    Trades
    WL
    Chat
    Stat
    Neuigkeiten
    ⦷
    AAA
    0.0000034090 322123829.00000000 11:36:45
    0.0000034090 31910690.00000000 11:36:45
    0.0000034090 109687500.00000000 11:36:45
    0.0000034080 6773900.00000000 11:36:35
    0.0000034060 6773800.00000000 11:36:06
    0.0000034060 13547700.00000000 11:36:03
    0.0000034070 24623333.00000000 11:35:51
    0.0000034080 49246600.00000000 11:35:47
    0.0000034070 26770085.00000000 11:35:38
    0.0000034080 193238254.00000000 11:35:37
    0.0000034060 17057736.00000000 11:34:51
    0.0000034060 312205.00000000 11:34:50
    0.0000034040 16419680.00000000 11:34:08
    0.0000034040 2202320.00000000 11:34:08
    0.0000034040 516498.00000000 11:33:55
    0.0000034040 1081150.00000000 11:33:55
    0.0000034020 72216940.00000000 11:33:23
    0.0000034010 5329600.00000000 11:33:11
    0.0000034020 7860852.00000000 11:33:10
    0.0000034000 189470133.00000000 11:32:52
    0.0000034000 793276.00000000 11:32:52
    0.0000033990 62079600.00000000 11:32:18
    0.0000033980 316451.00000000 11:31:52
    0.0000033970 6611711.00000000 11:31:24
    0.0000033980 4286819.00000000 11:31:08
    0.0000033960 6060160.00000000 11:29:37
    0.0000033960 32857838.00000000 11:29:29
    0.0000033950 62079631.00000000 11:29:23
    0.0000033960 5980832.00000000 11:28:46
    0.0000033950 109687500.00000000 11:28:34
    0.0000033950 3034617.00000000 11:28:33
    0.0000033940 62079600.00000000 11:28:02
    0.0000033930 62079631.00000000 11:27:46
    0.0000033910 33307682.00000000 11:27:38
    0.0000033900 3858267.00000000 11:27:18
    0.0000033890 97696093.00000000 11:27:12
    0.0000033900 109687500.00000000 11:27:12
    0.0000033900 62079631.00000000 11:27:12
    0.0000033870 107638306.00000000 11:26:58
    0.0000033870 5850700.00000000 11:26:40
    0.0000033880 79209319.00000000 11:26:29
    0.0000033880 79210003.00000000 11:26:29
    0.0000033880 2322667.00000000 11:26:29
    0.0000033900 37.00000000 11:26:29
    0.0000033900 3244800.00000000 11:25:30
    0.0000033940 258787000.00000000 11:25:16
    0.0000033910 109687500.00000000 11:25:00
    0.0000033900 134036589.00000000 11:24:08
    0.0000033900 2211411.00000000 11:24:08
    0.0000033910 33278791.00000000 11:24:04
    0.0000033850 26560359.00000000 11:23:46
    0.0000033870 9338844.00000000 11:23:46
    0.0000033870 13872491.00000000 11:23:46
    0.0000033880 26564344.00000000 11:23:46
    0.0000033870 135829419.00000000 11:23:46
    0.0000033870 109687500.00000000 11:23:46
    0.0000033870 2207831.00000000 11:23:46
    0.0000033870 312518.00000000 11:23:46
    0.0000033870 2212390.00000000 11:23:46
    0.0000033890 722852.00000000 11:23:46
    0.0000033900 794071.00000000 11:23:46
    0.0000033920 1082233.00000000 11:22:28
    0.0000033920 517016.00000000 11:22:28
    0.0000033930 54712259.00000000 11:22:03
    0.0000033930 55965401.00000000 11:22:03
    0.0000033930 37614493.00000000 11:22:03
    0.0000033930 39222667.00000000 11:22:03
    0.0000033940 25925899.00000000 11:21:45
    0.0000033950 6081068.00000000 11:21:29
    0.0000033970 3100000.00000000 11:21:08
    0.0000033970 22789678.00000000 11:21:08
    0.0000033970 7555737.00000000 11:20:31
    0.0000033970 20101836.00000000 11:20:31
    0.0000033970 233149090.00000000 11:20:31
    0.0000033970 327083686.00000000 11:18:53
    0.0000033970 235821828.00000000 11:18:52
    0.0000033970 327083686.00000000 11:18:52
    0.0000033970 327083686.00000000 11:18:52
    0.0000033970 15726967.00000000 11:18:13
    0.0000034000 40002131.00000000 11:18:07
    0.0000033990 109687500.00000000 11:18:07
    0.0000033970 27957491.00000000 11:17:28
    0.0000034000 32933665.00000000 11:16:49
    0.0000034030 51554516.00000000 11:15:49
    0.0000034030 25840048.00000000 11:15:29
    0.0000034040 2202320.00000000 11:15:29
    0.0000034050 58745778.00000000 11:15:23
    0.0000033980 2206207.00000000 11:14:35
    0.0000033950 20626821.00000000 11:14:15
    0.0000033950 19584230.00000000 11:14:15
    0.0000033950 19584230.00000000 11:14:15
    0.0000033950 19584230.00000000 11:14:15
    0.0000033950 19584230.00000000 11:14:15
    0.0000033950 19584230.00000000 11:14:15
    0.0000033950 19584230.00000000 11:14:15
    0.0000033950 19584230.00000000 11:14:15
    0.0000033950 19584230.00000000 11:14:15
    0.0000033950 19584230.00000000 11:14:15
    0.0000033950 18541609.00000000 11:14:15
    0.0000033950 1042621.00000000 11:14:15
    Abmelden
    AAA
    Hilfe
    🙂 🤣 😎 🤗 😛 😉 😜 🤑 🤔 😑 😴 😕 🙃 😲 😇 🙁 😢 😬 😟 😠 🕺 🏃 💪 ✌ 👌 👍 👎 👏 👋 🤝 🍺 🍻 🐋 🐟 🦈 🗽 🚄 ✈ 🛑 🚀 🏦 🌚 ⭐ 🌞 ⚡ 🏆 💰 💲 🔨 ❓ ❗ 💯 🔶 🏁
    ☺
    Anmelden oder Registrieren zum Chatten
    24 Stunden
    Veränderung
    -2.52%
    Volumen
    1,201,865,160,895
    Hoch
    0.0000035500
    Tief
    0.0000033730
    7 Tage
    Veränderung
    -10.76%
    Volumen
    10,034,819,953,956
    Hoch
    0.0000040160
    Tief
    0.0000033640
    30 Tage
    Veränderung
    +17.23%
    Volumen
    49,655,303,885,410
    Hoch
    0.0000045550
    Tief
    0.0000025300
    Pepe price rallies 25% as whale demand and futures interest surge
    Key takeaways Pepe has gained 25% this week, including a combined 22% advance over the previous two days. Seven whale transactions worth more than $1 million each occurred Thursday, the highest...
    coinjournal.net
    Aug 21, 2026 08:41
    PEPE Supply on Exchanges Just Took a Massive Hit – What’s Next?
    A drop in PEPE exchange balances has added to bullish expectations despite muted trader interest.
    cryptopotato.com
    Aug 6, 2026 20:02
    PEPE Exchange Outflows Hit Nearly 2-Year High as Whales Accumulate
    Pepe (PEPE) recorded its largest single-day exchange outflow since November 2024, with 4.54 trillion tokens leaving trading platforms, signaling that holders are moving supply away from immediate...
    beincrypto.com
    Aug 6, 2026 04:57
    Meme Coin Based on White House Shooter Conspiracy Rallies 320%
    $HENRY surged 300% after a 2023 Pepe tweet appeared to name the White House shooter, fueling a viral time-travel meme. The post Meme Coin Based on White House Shooter Conspiracy Rallies 320%...
    beincrypto.com
    Apr 27, 2026 16:11
    PEPE surges 4% as market sentiment improves, eyes Key resistance breakout
    Key takeaways Pepe extends gains on Wednesday, stretching its rally from the 50-day EMA. Derivatives data show heightened retail activity as risk-on sentiment returns to the market. Pepe (PEPE) is...
    coinjournal.net
    Apr 22, 2026 11:44
    Why The PEPE Price Could Stage A 55X Rally To Reach New $0.0001 ATH
    The PEPE price has now started to edge back into bullish conversations after the recent inflows into the crypto market. The last time PEPE’s weekly chart printed the kind of structure now...
    newsbtc.com
    Apr 21, 2026 15:30
    Pepe (PEPE) surges 9%, drawing interest from whales
    Key takeaways PEPE is up 9% in the last 24 hours, making it one of the best performers among the top 50 cryptocurrencies by market cap. The rally comes amid renewed interest from whales and retail...
    coinjournal.net
    Apr 16, 2026 07:40
    Murad Says SPX6900 (SPX) Is Primed for a Rally — Is He Right This Time?
    Crypto influencer Murad Mahmudov claims SPX6900 (SPX) is stabilizing at the same market cap level where Dogecoin (DOGE) and Pepe (PEPE) consolidated before their explosive rallies. The...
    beincrypto.com
    Apr 5, 2026 21:36
    The Shiba Inu Of This Cycle: Analyst Shares Why It Is Better To Buy PEPE Now
    In the bull market cycle of 2021-2022, the Shiba Inu meme coin made waves in a way that changed the face of meme coins forever. This came after Dogecoin’s initial 36,000% rally, and Shiba Inu...
    newsbtc.com
    Apr 4, 2026 07:30
    PEPE Explodes by 18% Amid Altcoin Rally, BTC Tapped $74K: Market Watch
    The frog-themed meme coin is today's biggest gainer, followed by TAO, DOT, and BONK.
    cryptopotato.com
    Mar 16, 2026 10:56
    Should PEPE traders brace for volatility as short squeeze potential builds?
    The memecoin market has seen its collective market capitalization drop by 48% over the past year, and 6.9% over the past month, according to CoinMarketCap. According to Glassnode, the memecoin...
    ambcrypto.com
    Mar 7, 2026 18:00
    Geben Sie einfach das Kommando im Chat ein. Ersetzen Sie dabei nick1 durch den jeweiligen Nick.
    • /ignore nick1 Einen Chat-User ignorieren
    • /unignore nick1 Einen Chat-User nicht mehr ignorieren
    • /ignorelist Ignorierte Chat-User anzeigen